Location: Paddlesworth
(51.1000°N, 1.1333°E)
Time: 07:51:42
(UTC+00:00)

Cosmos 1610 Rocket - Pass Details

Date: 11 May 2021
Orbit: 952 x 1003 km, 82.9° (Epoch: 20 June)

Event Time Altitude Azimuth Distance (km) Brightness Sun altitude
Rises 21:31:15 0° 350° (N) 3,652 8.8 -14.2°
Reaches altitude 10° 21:33:47 10° 353° (N) 2,698 7.8 -14.5°
Maximum altitude 21:39:56 73° 78° (ENE) 999 4.5 -15.0°
Enters shadow 21:44:04 22° 160° (SSE) 1,956 5.5 -15.3°
